Simultaneous Nadir Overpasses (SNOs) Predictions

Prediction of SNOs between GOES-17 and NOAA-20 Satellite Orbit:

Table of predicted SNOs for the next 14.0 days since TLE Epoch: 3/19/2022
Index Date Time (GOES-17) GOES-17 Lat,Lon NOAA-20 Lat,Lon Distance(km) Time Diff (sec)
1 03/20/2022 10:46:14 -0.04,-137.21 0.53,-139.84 299.36 80
2 03/21/2022 10:24:50 -0.04,-137.21 -0.44,-135.30 216.88 80
3 03/22/2022 22:46:48 0.04,-137.20 -0.70,-140.61 388.34 80
4 03/23/2022 22:30:44 0.04,-137.20 0.27,-136.08 127.37 80
5 03/25/2022 10:52:33 -0.03,-137.19 0.90,-141.35 474.24 80
6 03/26/2022 10:31:09 -0.03,-137.18 -0.13,-136.82 41.02 80
7 03/28/2022 22:34:22 0.02,-137.15 -0.09,-137.59 50.27 80
8 03/29/2022 22:18:19 0.02,-137.14 0.95,-133.06 464.89 80
9 03/31/2022 10:40:07 -0.01,-137.12 0.28,-138.32 137.28 80
10 04/01/2022 10:18:44 -0.02,-137.11 -0.75,-133.80 377.63 80
